Location: Newark
(42.7133°N, 87.7910°W)
Time: 14:20:47
(UTC+00:00)

Tiros 1 - Pass Details

Date: 23 September 2019
Orbit: 630 x 664 km, 48.4° (Epoch: 14 October)

Event Time Altitude Azimuth Distance (km) Brightness Sun altitude
Rises 23:42:14 0° 293° (WNW) 2,944 12.0 0.0°
Reaches altitude 10° 23:44:41 10° 286° (WNW) 2,026 11.4 -0.4°
Maximum altitude 23:49:01 39° 218° (SW) 943 8.5 -1.2°
Drops below altitude 10° 23:53:19 10° 149° (SSE) 2,002 9.4 -2.0°
Sets 23:55:43 0° 142° (SE) 2,904 10.1 -2.4°
